Date String (YYYY-MM-DD hh:mm:ss) UTC,Instrument flags,Ambient pressure (hPa),Sample flow (lpm),Bypass flow (lpm),Sample temperature (°C),Ambient temperature (°C),ASC tube jacket temperature (°C),LED temperature (°C),Box temperature (°C),Sample RH (%),Span deviation,Mass concentration (μg/m³),Mass concentration (μg/m³),Mass concentration (μg/m³)
DateTimeUTC,F1_M11,P_M11,Q1_M11,Q2_M11,T1_M11,T2_M11,T3_M11,T4_M11,T5_M11,U1_M11,ZSPAN_M11,X2_M11,X0_M11,X1_M11
2022-03-07 03:00:00,,0829.5,5.00,0.00,22.8,23.2,00.0,31.5,24.7,09.2,0000.0,0003.73,0005.49,0003.64
2022-03-07 03:01:00,,0829.7,5.00,0.00,22.8,23.0,00.0,31.5,24.7,09.2,0000.0,0003.72,0005.48,0003.63
2022-03-07 03:02:00,,0829.6,4.99,0.00,22.8,22.7,00.0,31.5,24.7,09.2,0000.0,0003.74,0005.52,0003.64
2022-03-07 03:03:00,,0829.7,5.00,0.00,22.8,22.5,00.0,31.6,24.6,09.2,0000.0,0003.76,0005.62,0003.65
2022-03-07 03:04:00,,0829.6,5.01,0.00,22.7,22.4,00.0,31.6,24.6,09.2,0000.0,0003.79,0005.66,0003.66
2022-03-07 03:05:00,,0829.4,5.01,0.00,22.7,22.3,00.0,31.6,24.5,09.2,0000.0,0003.82,0005.73,0003.67
2022-03-07 03:06:00,,0829.5,5.00,0.00,22.7,22.2,00.0,31.6,24.5,09.3,0000.0,0003.82,0005.70,0003.68
2022-03-07 03:07:00,,0829.6,5.00,0.00,22.7,22.1,00.0,31.6,24.5,09.3,0000.0,0003.84,0004.93,0003.68
2022-03-07 03:08:00,,0829.4,5.00,0.00,22.7,22.0,00.0,31.6,24.4,09.3,0000.0,0003.87,0004.93,0003.70
2022-03-07 03:09:00,,0829.3,5.00,0.00,22.7,22.0,00.0,31.6,24.4,09.3,0000.0,0003.86,0004.91,0003.70
2022-03-07 03:10:00,,0829.4,5.00,0.00,22.6,21.9,00.0,31.6,24.4,09.3,0000.0,0003.87,0004.96,0003.70
2022-03-07 03:11:00,,0829.5,5.01,0.00,22.6,21.9,00.0,31.6,24.4,09.3,0000.0,0003.89,0004.96,0003.71
2022-03-07 03:12:00,,0829.4,5.00,0.00,22.6,21.8,00.0,31.6,24.4,09.3,0000.0,0003.90,0004.95,0003.73
2022-03-07 03:13:00,,0829.3,5.00,0.00,22.6,21.8,00.0,31.5,24.3,09.3,0000.0,0003.93,0005.13,0003.74
2022-03-07 03:14:00,,0829.3,5.00,0.00,22.6,21.8,00.0,31.5,24.3,09.4,0000.0,0003.92,0005.08,0003.73
2022-03-07 03:15:00,,0829.3,4.99,0.00,22.6,21.8,00.0,31.5,24.3,09.4,0000.0,0003.89,0005.03,0003.71
2022-03-07 03:16:00,,0829.4,5.00,0.00,22.6,21.7,00.0,31.5,24.3,09.4,0000.0,0003.86,0004.92,0003.71
2022-03-07 03:17:00,,0829.4,5.00,0.00,22.5,21.7,00.0,31.5,24.3,09.4,0000.0,0003.86,0004.90,0003.71
2022-03-07 03:18:00,,0829.4,4.99,0.00,22.5,21.7,00.0,31.5,24.3,09.5,0000.0,0003.86,0004.89,0003.71
2022-03-07 03:19:00,,0829.5,5.01,0.00,22.5,21.7,00.0,31.5,24.2,09.5,0000.0,0003.85,0004.89,0003.71
2022-03-07 03:20:00,,0829.5,5.01,0.00,22.5,21.6,00.0,31.5,24.2,09.5,0000.0,0003.87,0004.94,0003.72
2022-03-07 03:21:00,,0829.5,4.99,0.00,22.5,22.0,00.0,31.5,24.3,09.5,0000.0,0003.87,0004.95,0003.72
2022-03-07 03:22:00,,0829.5,4.99,0.00,22.6,22.7,00.0,31.5,24.5,09.4,0000.0,0003.87,0004.98,0003.72
2022-03-07 03:23:00,,0829.5,5.00,0.00,22.7,23.3,00.0,31.6,24.7,09.4,0000.0,0003.87,0005.00,0003.72
2022-03-07 03:24:00,,0829.5,5.00,0.00,22.8,23.2,00.0,31.6,24.8,09.4,0000.0,0003.87,0004.88,0003.72
2022-03-07 03:25:00,,0829.5,5.01,0.00,22.8,23.0,00.0,31.6,24.8,09.4,0000.0,0003.87,0004.87,0003.72
2022-03-07 03:26:00,,0829.5,4.99,0.00,22.8,22.8,00.0,31.6,24.7,09.4,0000.0,0003.89,0004.92,0003.73
2022-03-07 03:27:00,,0829.5,5.01,0.00,22.8,22.6,00.0,31.6,24.7,09.4,0000.0,0003.89,0004.90,0003.74
2022-03-07 03:28:00,,0829.5,5.00,0.00,22.8,22.5,00.0,31.6,24.6,09.4,0000.0,0003.89,0004.91,0003.74
2022-03-07 03:29:00,,0829.6,5.00,0.00,22.8,22.3,00.0,31.6,24.6,09.4,0000.0,0003.89,0004.95,0003.73
2022-03-07 03:30:00,,0829.6,5.00,0.00,22.8,22.2,00.0,31.6,24.6,09.4,0000.0,0003.88,0004.87,0003.73
2022-03-07 03:31:00,,0829.6,5.00,0.00,22.7,22.1,00.0,31.6,24.5,09.4,0000.0,0003.87,0004.85,0003.73
2022-03-07 03:32:00,,0829.6,5.00,0.00,22.7,22.1,00.0,31.6,24.5,09.5,0000.0,0003.87,0004.84,0003.73
2022-03-07 03:33:00,,0829.6,5.00,0.00,22.7,22.0,00.0,31.6,24.5,09.5,0000.0,0003.87,0004.81,0003.74
2022-03-07 03:34:00,,0829.6,5.00,0.00,22.7,22.0,00.0,31.6,24.5,09.5,0000.0,0003.87,0004.78,0003.74
2022-03-07 03:35:00,,0829.6,5.00,0.00,22.7,21.9,00.0,31.6,24.4,09.5,0000.0,0003.85,0004.73,0003.74
2022-03-07 03:36:00,,0829.6,5.00,0.00,22.7,21.9,00.0,31.6,24.4,09.5,0000.0,0003.86,0004.87,0003.75
2022-03-07 03:37:00,,0829.5,5.00,0.00,22.7,21.8,00.0,31.6,24.4,09.6,0000.0,0003.86,0004.88,0003.75
2022-03-07 03:38:00,,0829.6,5.01,0.00,22.6,21.8,00.0,31.6,24.4,09.6,0000.0,0003.87,0004.94,0003.75
2022-03-07 03:39:00,,0829.6,5.00,0.00,22.6,21.8,00.0,31.6,24.3,09.6,0000.0,0003.87,0004.98,0003.74
2022-03-07 03:40:00,,0829.6,5.00,0.00,22.6,21.8,00.0,31.6,24.3,09.6,0000.0,0003.89,0005.02,0003.75
2022-03-07 03:41:00,,0829.6,5.01,0.00,22.6,21.7,00.0,31.6,24.3,09.6,0000.0,0003.90,0005.04,0003.75
2022-03-07 03:42:00,,0829.6,4.99,0.00,22.6,21.7,00.0,31.6,24.3,09.7,0000.0,0003.90,0005.05,0003.76
2022-03-07 03:43:00,,0829.6,5.00,0.00,22.5,21.7,00.0,31.5,24.3,09.7,0000.0,0003.89,0005.03,0003.76
2022-03-07 03:44:00,,0829.6,5.00,0.00,22.5,21.7,00.0,31.5,24.3,09.7,0000.0,0003.90,0005.03,0003.76
2022-03-07 03:45:00,,0829.6,5.00,0.00,22.5,21.7,00.0,31.5,24.3,09.7,0000.0,0003.93,0005.12,0003.77
2022-03-07 03:46:00,,0829.7,5.01,0.00,22.6,22.3,00.0,31.6,24.4,09.7,0000.0,0003.94,0005.16,0003.78
2022-03-07 03:47:00,,0829.7,5.00,0.00,22.7,23.0,00.0,31.6,24.6,09.6,0000.0,0003.92,0005.03,0003.78
2022-03-07 03:48:00,,0829.7,5.00,0.00,22.8,23.3,00.0,31.6,24.8,09.6,0000.0,0003.91,0004.91,0003.78
2022-03-07 03:49:00,,0829.7,5.00,0.00,22.9,23.1,00.0,31.6,24.8,09.5,0000.0,0003.92,0004.92,0003.79
2022-03-07 03:50:00,,0829.7,5.01,0.00,22.8,22.9,00.0,31.7,24.8,09.5,0000.0,0003.93,0004.93,0003.81
2022-03-07 03:51:00,,0829.7,5.00,0.00,22.8,22.7,00.0,31.7,24.7,09.5,0000.0,0003.92,0004.86,0003.81
2022-03-07 03:52:00,,0829.7,5.00,0.00,22.8,22.6,00.0,31.7,24.6,09.5,0000.0,0003.93,0004.89,0003.81
2022-03-07 03:53:00,,0829.7,5.00,0.00,22.8,22.4,00.0,31.7,24.6,09.5,0000.0,0003.94,0004.93,0003.81
2022-03-07 03:54:00,,0829.8,5.01,0.00,22.8,22.3,00.0,31.7,24.6,09.6,0000.0,0003.96,0004.95,0003.83
2022-03-07 03:55:00,,0829.8,5.00,0.00,22.8,22.2,00.0,31.7,24.6,09.6,0000.0,0003.95,0004.94,0003.83
2022-03-07 03:56:00,,0829.8,4.99,0.00,22.8,22.1,00.0,31.7,24.6,09.6,0000.0,0003.93,0004.94,0003.82
2022-03-07 03:57:00,,0829.8,5.00,0.00,22.8,22.1,00.0,31.7,24.5,09.6,0000.0,0003.94,0005.00,0003.83
2022-03-07 03:58:00,,0829.9,5.00,0.00,22.7,22.0,00.0,31.7,24.5,09.6,0000.0,0003.96,0005.07,0003.84
2022-03-07 03:59:00,,0829.9,5.00,0.00,22.7,22.0,00.0,31.7,24.5,09.6,0000.0,0003.99,0005.16,0003.85
